Location: Newark
(49.3808°N, 3.1844°E)
Time: 21:54:53
(UTC+00:00)

Vanguard 1 Rocket - Pass Details

Date: 19 November 2019
Orbit: 650 x 4226 km, 34.3° (Epoch: 05 December)

Event Time Altitude Azimuth Distance (km) Brightness Sun altitude
Rises 04:13:09 0° 228° (SW) 2,958 - -27.4°
Reaches altitude 10° 04:16:23 10° 201° (SSW) 2,077 - -26.9°
Exits shadow 04:18:01 13° 179° (S) 1,914 9.0 -26.6°
Maximum altitude 04:18:44 14° 169° (SSE) 1,926 9.2 -26.5°
Drops below altitude 10° 04:21:21 10° 137° (SE) 2,367 10.0 -26.1°
Sets 04:25:33 0° 113° (ESE) 3,735 11.6 -25.4°
